Data for 09/15/2018

Time Sea-Level Adjusted Pressure Absolute Pressure Temperature Relative Humidity Dew Point   
(mb) (inHg) (mb) (inHg) (C) (F) (%) (C) (F)
00:05 1017 30.03 846 24.98 10.7 51.2 69 5.2 41.4
00:10 1017 30.03 846 24.98 10.6 51 69 5.2 41.3
00:15 1017 30.03 846 24.98 10.5 50.9 69 5.2 41.4
00:20 1017 30.03 846 24.98 10.5 50.9 70 5.3 41.5
00:25 1017 30.03 846 24.98 10.4 50.7 70 5.2 41.4
00:30 1017 30.03 846 24.98 10.4 50.7 70 5.2 41.3
00:35 1017 30.03 847 25.01 10.4 50.6 70 5.2 41.4
00:40 1017 30.03 847 25.01 10.3 50.5 71 5.3 41.5
00:45 1017 30.03 847 25.01 10.2 50.3 71 5.2 41.4
00:50 1017 30.03 847 25.01 10.2 50.3 72 5.3 41.5
00:55 1017 30.03 847 25.01 10.1 50.2 71 5.2 41.4
01:00 1017 30.03 847 25.01 10.1 50.1 72 5.3 41.5
01:05 1017 30.03 847 25.01 10 50 72 5.2 41.4
01:10 1018 30.06 847 25.01 10 49.9 72 5.2 41.3
01:15 1018 30.06 847 25.01 10 49.9 72 5.3 41.5
01:20 1018 30.06 847 25.01 9.9 49.9 72 5.2 41.3
01:25 1018 30.06 847 25.01 9.9 49.8 73 5.2 41.4
01:30 1018 30.06 847 25.01 9.8 49.7 73 5.2 41.4
01:35 1018 30.06 847 25.01 9.8 49.6 73 5.2 41.3
01:40 1018 30.06 847 25.01 9.8 49.7 73 5.2 41.4
01:45 1018 30.06 847 25.01 9.8 49.6 73 5.1 41.2
01:50 1017 30.03 847 25.01 9.8 49.6 73 5.2 41.4
01:55 1017 30.03 847 25.01 9.8 49.6 73 5.2 41.3
02:00 1017 30.03 847 25.01 9.7 49.5 73 5.2 41.4
02:05 1017 30.03 847 25.01 9.7 49.5 74 5.3 41.5
02:10 1017 30.03 847 25.01 9.7 49.4 74 5.3 41.5
02:15 1017 30.03 847 25.01 9.7 49.5 73 5.2 41.4
02:20 1017 30.03 847 25.01 9.7 49.5 74 5.2 41.4
02:25 1017 30.03 847 25.01 9.7 49.4 74 5.2 41.4
02:30 1018 30.06 847 25.01 9.7 49.5 74 5.3 41.5
02:35 1018 30.06 847 25.01 9.7 49.5 74 5.3 41.5
02:40 1018 30.06 847 25.01 9.7 49.4 74 5.3 41.5
02:45 1018 30.06 847 25.01 9.7 49.5 74 5.3 41.6
02:50 1018 30.06 847 25.01 9.7 49.4 75 5.4 41.7
02:55 1018 30.06 847 25.01 9.6 49.3 75 5.4 41.6
03:00 1018 30.06 847 25.01 9.7 49.4 74 5.4 41.6
03:05 1018 30.06 847 25.01 9.6 49.4 75 5.4 41.8
03:10 1018 30.06 847 25.01 9.6 49.3 75 5.4 41.8
03:15 1018 30.06 847 25.01 9.6 49.2 76 5.5 41.9
03:20 1018 30.06 847 25.01 9.5 49.1 76 5.5 41.8
03:25 1018 30.06 847 25.01 9.5 49.1 76 5.4 41.8
03:30 1018 30.06 847 25.01 9.5 49 76 5.5 41.8
03:35 1018 30.06 847 25.01 9.5 49 75 5.4 41.7
03:40 1018 30.06 847 25.01 9.5 49.2 75 5.4 41.7
03:45 1018 30.06 847 25.01 9.5 49.1 76 5.5 41.9
03:50 1018 30.06 847 25.01 9.4 49 76 5.5 41.9
03:55 1018 30.06 847 25.01 9.4 48.9 77 5.5 41.9
04:00 1018 30.06 847 25.01 9.4 48.9 77 5.5 41.9
04:05 1018 30.06 847 25.01 9.4 48.8 77 5.5 41.9
04:10 1018 30.06 847 25.01 9.4 48.8 76 5.4 41.8
04:15 1018 30.06 847 25.01 9.4 48.9 76 5.4 41.8
04:20 1018 30.06 847 25.01 9.4 49 76 5.4 41.8
04:25 1018 30.06 847 25.01 9.4 48.9 76 5.5 41.9
04:30 1018 30.06 847 25.01 9.3 48.8 77 5.5 41.8
04:35 1018 30.06 847 25.01 9.3 48.8 77 5.5 41.9
04:40 1018 30.06 847 25.01 9.3 48.7 77 5.5 41.8
04:45 1018 30.06 847 25.01 9.2 48.6 77 5.4 41.8
04:50 1018 30.06 847 25.01 9.2 48.5 77 5.4 41.7
04:55 1018 30.06 847 25.01 9.2 48.5 77 5.3 41.6
05:00 1018 30.06 847 25.01 9.1 48.4 77 5.3 41.6
05:05 1018 30.06 848 25.04 9 48.2 77 5.2 41.4
05:10 1018 30.06 847 25.01 9 48.2 77 5.1 41.3
05:15 1018 30.06 847 25.01 8.9 48.1 77 5.2 41.3
05:20 1018 30.06 847 25.01 8.9 48.1 78 5.2 41.4
05:25 1018 30.06 847 25.01 8.9 48 78 5.3 41.5
05:30 1018 30.06 847 25.01 8.8 47.8 79 5.3 41.6
05:35 1018 30.06 847 25.01 8.7 47.7 79 5.3 41.5
05:40 1018 30.06 847 25.01 8.7 47.6 79 5.3 41.6
05:45 1018 30.06 847 25.01 8.7 47.6 79 5.3 41.5
05:50 1018 30.06 847 25.01 8.8 47.8 79 5.3 41.6
05:55 1018 30.06 847 25.01 8.8 47.8 79 5.4 41.7
06:00 1018 30.06 847 25.01 8.8 47.8 79 5.4 41.8
06:05 1018 30.06 847 25.01 8.8 47.8 80 5.5 41.8
06:10 1018 30.06 847 25.01 8.7 47.7 79 5.4 41.7
06:15 1018 30.06 847 25.01 8.8 47.8 79 5.4 41.7
06:20 1018 30.06 847 25.01 8.7 47.7 79 5.4 41.7
06:25 1018 30.06 847 25.01 8.8 47.8 79 5.4 41.7
06:30 1018 30.06 847 25.01 8.8 47.9 79 5.4 41.6
06:35 1018 30.06 847 25.01 8.9 47.9 79 5.4 41.7
06:40 1018 30.06 847 25.01 8.9 48 79 5.4 41.7
06:45 1018 30.06 847 25.01 8.9 48.1 78 5.4 41.7
06:50 1018 30.06 847 25.01 9.1 48.3 78 5.4 41.8
06:55 1018 30.06 847 25.01 9.1 48.5 77 5.4 41.8
07:00 1018 30.06 847 25.01 9.2 48.5 77 5.4 41.8
07:05 1018 30.06 847 25.01 9.2 48.6 76 5.1 41.3
07:10 1018 30.06 847 25.01 8.8 47.9 74 4.4 40
07:15 1018 30.06 847 25.01 8.2 46.8 73 3.7 38.6
07:20 1018 30.06 847 25.01 7.9 46.2 73 3.3 37.9
07:25 1018 30.06 847 25.01 7.9 46.3 72 3.2 37.8
07:30 1018 30.06 847 25.01 8.1 46.5 72 3.4 38.1
07:35 1018 30.06 847 25.01 8.4 47.1 74 4 39.3
07:40 1018 30.06 847 25.01 8.9 48 75 4.7 40.5
07:45 1018 30.06 847 25.01 9.4 48.9 74 5 41
07:50 1018 30.06 847 25.01 9.7 49.5 73 5 41.1
07:55 1018 30.06 847 25.01 9.9 49.8 72 5.1 41.1
08:00 1018 30.06 847 25.01 10.2 50.3 70 5 41
08:05 1018 30.06 847 25.01 10.6 51.1 67 4.7 40.5
08:10 1018 30.06 847 25.01 11.2 52.1 64 4.7 40.5
08:15 1018 30.06 847 25.01 11.4 52.5 64 4.9 40.9
08:20 1018 30.06 847 25.01 11.1 51.9 66 5 40.9
08:25 1018 30.06 847 25.01 11 51.7 66 4.8 40.7
08:30 1017 30.03 847 25.01 11 51.7 64 4.6 40.2
08:35 1017 30.03 847 25.01 11.2 52.1 64 4.7 40.4
08:40 1017 30.03 847 25.01 11.3 52.3 64 4.7 40.4
08:45 1017 30.03 847 25.01 11.3 52.4 63 4.7 40.5
08:50 1017 30.03 847 25.01 11.4 52.4 63 4.6 40.3
08:55 1017 30.03 847 25.01 11.5 52.6 62 4.6 40.2
09:00 1017 30.03 847 25.01 11.6 52.9 62 4.6 40.3
09:05 1017 30.03 847 25.01 11.7 53 62 4.8 40.6
09:10 1017 30.03 847 25.01 11.7 53.1 61 4.6 40.3
09:15 1017 30.03 846 24.98 11.9 53.4 59 4.2 39.6
09:20 1017 30.03 846 24.98 12.2 53.9 59 4.5 40.1
09:25 1017 30.03 846 24.98 12.4 54.3 59 4.7 40.5
09:30 1017 30.03 846 24.98 12.7 54.8 57 4.5 40
09:35 1017 30.03 846 24.98 12.8 55.1 58 4.8 40.7
09:40 1017 30.03 846 24.98 13.1 55.5 55 4.3 39.7
09:45 1017 30.03 846 24.98 13.2 55.8 55 4.4 40
09:50 1017 30.03 847 25.01 13.2 55.8 54 4.3 39.7
09:55 1017 30.03 846 24.98 13.2 55.8 54 4.1 39.3
10:00 1017 30.03 846 24.98 13.4 56.1 54 4.3 39.7
10:05 1017 30.03 846 24.98 13.9 57.1 53 4.5 40.1
10:10 1017 30.03 846 24.98 14.3 57.7 50 4.2 39.5
10:15 1017 30.03 846 24.98 14.4 57.9 50 4.3 39.7
10:20 1017 30.03 846 24.98 14.8 58.7 48 3.9 39.1
10:25 1017 30.03 846 24.98 15.4 59.7 45 3.5 38.4
10:30 1017 30.03 846 24.98 15.8 60.5 47 4.8 40.6
10:35 1017 30.03 846 24.98 16.1 61 47 4.9 40.8
10:40 1017 30.03 846 24.98 16.8 62.2 44 4.7 40.4
10:45 1017 30.03 846 24.98 17.5 63.5 42 4.7 40.4
10:50 1017 30.03 846 24.98 17.5 63.5 42 4.7 40.5
10:55 1017 30.03 846 24.98 17.2 62.9 46 5.5 42
11:00 1017 30.03 846 24.98 16.4 61.6 48 5.6 42.1
11:05 1016 30 846 24.98 16.6 61.8 47 5.4 41.7
11:10 1016 30 846 24.98 16.9 62.3 47 5.5 41.9
11:15 1016 30 846 24.98 16.7 62 48 5.7 42.2
11:20 1016 30 846 24.98 16.2 61.2 48 5.4 41.6
11:25 1016 30 845 24.95 17.1 62.7 46 5.5 41.8
11:30 1016 30 845 24.95 17.1 62.8 46 5.5 41.9
11:35 1016 30 845 24.95 17 62.6 44 4.8 40.7
11:40 1016 30 845 24.95 17.7 63.9 42 4.6 40.3
11:45 1016 30 845 24.95 18.4 65.2 40 4.8 40.7
11:50 1016 30 845 24.95 18.5 65.4 43 5.7 42.3
11:55 1016 30 845 24.95 17.4 63.3 45 5.5 41.9
12:00 1016 30 845 24.95 17.7 63.8 41 4.4 40
12:05 1016 30 845 24.95 18.2 64.7 40 4.4 40
12:10 1016 30 845 24.95 18.4 65.2 40 4.7 40.4
12:15 1016 30 845 24.95 18.5 65.3 40 4.7 40.5
12:20 1016 30 845 24.95 18.2 64.8 41 4.9 40.8
12:25 1016 30 845 24.95 18.2 64.8 39 4.4 39.8
12:30 1016 30 845 24.95 18.6 65.5 38 4 39.3
12:35 1016 30 845 24.95 18.6 65.4 39 4.3 39.7
12:40 1015 29.97 845 24.95 18.6 65.5 37 3.7 38.7
12:45 1015 29.97 845 24.95 18.8 65.8 36 3.5 38.4
12:50 1015 29.97 845 24.95 19.1 66.4 35 3.5 38.2
12:55 1015 29.97 844 24.92 19.1 66.4 34 3 37.4
13:00 1015 29.97 844 24.92 20 68 31 2.3 36.2
13:05 1015 29.97 844 24.92 21 69.7 30 3.1 37.5
13:10 1015 29.97 844 24.92 20.9 69.5 30 2.8 37
13:15 1015 29.97 844 24.92 20.5 68.9 33 3.9 39.1
13:20 1015 29.97 844 24.92 19.2 66.6 35 3.7 38.7
13:25 1015 29.97 844 24.92 18.7 65.6 37 3.7 38.7
13:30 1014 29.94 844 24.92 18.7 65.6 37 3.9 39
13:35 1014 29.94 843 24.89 19.8 67.6 34 3.6 38.4
13:40 1014 29.94 843 24.89 20.7 69.3 35 4.8 40.7
13:45 1014 29.94 843 24.89 20.3 68.5 33 3.7 38.7
13:50 1014 29.94 843 24.89 20.6 69 33 4.1 39.3
13:55 1014 29.94 844 24.92 20.8 69.5 33 3.9 39
14:00 1014 29.94 843 24.89 20.7 69.2 33 4.2 39.5
14:05 1014 29.94 843 24.89 20.1 68.2 36 4.6 40.3
14:10 1014 29.94 843 24.89 19.5 67.2 37 4.5 40
14:15 1014 29.94 843 24.89 19.6 67.2 37 4.7 40.5
14:20 1014 29.94 843 24.89 20.1 68.2 34 4.1 39.4
14:25 1014 29.94 843 24.89 20.2 68.4 36 4.7 40.5
14:30 1014 29.94 843 24.89 20.2 68.4 36 4.9 40.9
14:35 1014 29.94 843 24.89 19.9 67.9 37 5 40.9
14:40 1014 29.94 843 24.89 19.7 67.4 37 4.7 40.4
14:45 1014 29.94 843 24.89 19.4 66.9 38 4.8 40.7
14:50 1014 29.94 843 24.89 18.9 66.1 40 5.2 41.4
14:55 1014 29.94 843 24.89 18.7 65.6 41 5.2 41.3
15:00 1014 29.94 843 24.89 18.9 66.1 40 5 41
15:05 1014 29.94 843 24.89 19.1 66.3 38 4.6 40.3
15:10 1014 29.94 843 24.89 19 66.2 38 4.6 40.3
15:15 1014 29.94 843 24.89 18.7 65.6 40 4.9 40.8
15:20 1014 29.94 843 24.89 18.4 65.1 41 5 40.9
15:25 1014 29.94 843 24.89 18.3 65 42 5.3 41.6
15:30 1014 29.94 843 24.89 18.2 64.8 43 5.4 41.7
15:35 1014 29.94 843 24.89 17.9 64.3 43 5.3 41.5
15:40 1014 29.94 843 24.89 17.8 64 43 5.2 41.3
15:45 1013 29.91 843 24.89 17.8 64.1 45 5.7 42.3
15:50 1013 29.91 842 24.86 17.7 63.8 44 5.4 41.7
15:55 1013 29.91 842 24.86 17.8 64 42 5 41
16:00 1013 29.91 842 24.86 18.1 64.7 40 4.6 40.3
16:05 1013 29.91 842 24.86 18.3 64.9 41 4.9 40.8
16:10 1013 29.91 842 24.86 18.7 65.6 39 4.5 40
16:15 1013 29.91 842 24.86 18.5 65.3 41 5.1 41.2
16:20 1012 29.88 842 24.86 18.4 65.1 42 5.3 41.6
16:25 1012 29.88 842 24.86 18.8 65.9 41 5.4 41.6
16:30 1012 29.88 841 24.83 19.7 67.5 35 3.8 38.9
16:35 1012 29.88 841 24.83 20 67.9 34 3.9 39
16:40 1012 29.88 841 24.83 19.9 67.8 33 3.2 37.8
16:45 1012 29.88 841 24.83 19.8 67.7 33 3.1 37.6
16:50 1012 29.88 841 24.83 20 68 32 2.9 37.2
16:55 1012 29.88 841 24.83 20 67.9 29 1.7 35
17:00 1012 29.88 841 24.83 19.8 67.7 29 1.2 34.2
17:05 1012 29.88 841 24.83 19.7 67.4 28 1 33.7
17:10 1012 29.88 841 24.83 19.5 67 28 0.9 33.6
17:15 1012 29.88 841 24.83 19.4 67 29 0.9 33.6
17:20 1012 29.88 841 24.83 19.4 67 29 1.1 34
17:25 1012 29.88 841 24.83 19.4 66.9 29 0.9 33.6
17:30 1012 29.88 841 24.83 19.5 67.1 28 0.6 33.1
17:35 1012 29.88 841 24.83 19.6 67.2 27 0.3 32.5
17:40 1011 29.85 841 24.83 19.8 67.6 27 0.4 32.7
17:45 1011 29.85 841 24.83 19.7 67.5 27 0.5 32.9
17:50 1011 29.85 841 24.83 19.6 67.3 27 0.1 32.2
17:55 1011 29.85 841 24.83 19.8 67.6 27 0.3 32.5
18:00 1011 29.85 841 24.83 19.6 67.3 27 0.4 32.6
18:05 1011 29.85 841 24.83 19.5 67.1 27 0.3 32.6
18:10 1012 29.88 841 24.83 19.3 66.8 29 1.2 34.2
18:15 1012 29.88 841 24.83 19.1 66.4 30 1.4 34.5
18:20 1012 29.88 841 24.83 19 66.2 36 3.6 38.5
18:25 1012 29.88 841 24.83 18.2 64.7 38 3.7 38.7
18:30 1011 29.85 841 24.83 17.6 63.7 40 3.9 39.1
18:35 1011 29.85 841 24.83 17.3 63.2 43 4.7 40.5
18:40 1011 29.85 841 24.83 16.8 62.2 44 4.6 40.4
18:45 1011 29.85 840 24.81 16.6 61.8 45 4.7 40.5
18:50 1011 29.85 840 24.81 16.4 61.5 45 4.7 40.4
18:55 1011 29.85 841 24.83 16.5 61.6 46 5 41
19:00 1012 29.88 841 24.83 16.4 61.6 46 4.8 40.7
19:05 1012 29.88 841 24.83 16.5 61.7 46 4.8 40.7
19:10 1012 29.88 841 24.83 16.5 61.7 45 4.6 40.3
19:15 1012 29.88 841 24.83 16.2 61.1 48 5.3 41.6
19:20 1013 29.91 842 24.86 15.9 60.5 47 4.5 40.1
19:25 1012 29.88 842 24.86 16.5 61.7 46 5 41
19:30 1012 29.88 842 24.86 16.4 61.4 46 5 40.9
19:35 1013 29.91 842 24.86 16.4 61.5 43 4 39.2
19:40 1013 29.91 842 24.86 16.8 62.2 45 4.9 40.8
19:45 1013 29.91 842 24.86 16.6 61.8 48 5.5 41.9
19:50 1013 29.91 843 24.89 16.1 60.9 49 5.5 41.9
19:55 1013 29.91 843 24.89 15.7 60.2 51 5.6 42.1
20:00 1014 29.94 843 24.89 15.5 59.9 50 5.2 41.4
20:05 1014 29.94 843 24.89 15.6 60.1 51 5.5 41.8
20:10 1014 29.94 843 24.89 15.5 59.8 51 5.5 41.9
20:15 1014 29.94 843 24.89 15.3 59.6 51 5.4 41.7
20:20 1014 29.94 844 24.92 15.4 59.8 51 5.5 41.9
20:25 1015 29.97 844 24.92 15.6 60 50 5.3 41.6
20:30 1015 29.97 844 24.92 15.6 60.1 52 5.8 42.4
20:35 1015 29.97 845 24.95 15.5 59.9 57 7.1 44.8
20:40 1015 29.97 845 24.95 15.1 59.2 61 7.8 46.1
20:45 1016 30 845 24.95 14.6 58.2 62 7.5 45.4
20:50 1016 30 845 24.95 14.1 57.4 64 7.4 45.4
20:55 1016 30 846 24.98 13.9 56.9 65 7.6 45.6
21:00 1017 30.03 846 24.98 13.7 56.6 66 7.5 45.5
21:05 1017 30.03 846 24.98 13.6 56.4 68 7.9 46.2
21:10 1017 30.03 846 24.98 13.4 56.1 68 7.7 45.9
21:15 1017 30.03 846 24.98 13.1 55.6 71 7.9 46.3
21:20 1017 30.03 847 25.01 12.8 55.1 72 7.9 46.3
21:25 1017 30.03 847 25.01 12.7 54.9 71 7.6 45.7
21:30 1017 30.03 847 25.01 12.7 54.9 71 7.6 45.7
21:35 1018 30.06 847 25.01 12.6 54.6 73 8 46.4
21:40 1019 30.09 848 25.04 12.2 53.9 77 8.3 47
21:45 1019 30.09 848 25.04 11.6 52.9 81 8.4 47.2
21:50 1019 30.09 848 25.04 11.1 52.1 82 8.3 46.9
21:55 1019 30.09 848 25.04 10.8 51.4 84 8.2 46.8
22:00 1019 30.09 848 25.04 10.6 51 86 8.4 47.1
22:05 1019 30.09 848 25.04 10.4 50.7 86 8.2 46.8
22:10 1020 30.12 849 25.07 10.3 50.5 87 8.2 46.8
22:15 1020 30.12 850 25.1 10.2 50.3 86 8 46.4
22:20 1021 30.15 850 25.1 10 50 87 7.9 46.3
22:25 1020 30.12 850 25.1 9.9 49.8 88 8.1 46.6
22:30 1020 30.12 850 25.1 9.8 49.6 89 8 46.4
22:35 1021 30.15 850 25.1 9.7 49.5 88 7.9 46.1
22:40 1021 30.15 850 25.1 9.7 49.5 88 7.8 46
22:45 1021 30.15 850 25.1 9.7 49.4 87 7.7 45.8
22:50 1019 30.09 848 25.04 9.6 49.2 87 7.5 45.4
22:55 1018 30.06 847 25.01 9.2 48.6 89 7.5 45.4
23:00 1017 30.03 846 24.98 9.1 48.3 90 7.5 45.5
23:05 1017 30.03 846 24.98 9 48.2 90 7.4 45.2
23:10 1017 30.03 846 24.98 8.9 48 89 7.2 44.9
23:15 1017 30.03 846 24.98 8.9 48.1 88 7.1 44.7
23:20 1017 30.03 846 24.98 8.9 48 86 6.7 44
23:25 1017 30.03 847 25.01 9.1 48.3 84 6.5 43.6
23:30 1018 30.06 847 25.01 9.2 48.5 82 6.3 43.3
23:35 1018 30.06 847 25.01 9.2 48.6 81 6.2 43.2
23:40 1018 30.06 847 25.01 9.2 48.6 80 6 42.7
23:45 1018 30.06 847 25.01 9.3 48.7 78 5.7 42.3
23:50 1018 30.06 847 25.01 9.4 48.8 77 5.5 42
23:55 1018 30.06 847 25.01 9.4 48.8 78 5.8 42.5
24:00 1018 30.06 847 25.01 9.2 48.6 79 5.8 42.5